• In Belgium
  • List of Countries
  • For 7 days
  • Water Temperature
  • Satellite Maps
  • Weather Map
  • Weather Widgets
  • user-avatar
    Login

    Hourly Weather Chardzhou

    Today, 26 April, Thursday

    Time Temperature Precipitation Wind Pressure Humidity
    00:00 +20°C° 0 mm 5 mps 750 mmHg 31%
    01:00 +19°C° 0 mm 5 mps 750 mmHg 32%
    02:00 +19°C° 0 mm 5 mps 750 mmHg 33%
    03:00 +18°C° 0 mm 4 mps 750 mmHg 34%
    04:00 +16°C° 0 mm 5 mps 750 mmHg 36%
    05:00 +17°C° 0 mm 5 mps 750 mmHg 36%
    06:00 +17°C° 0 mm 5 mps 750 mmHg 36%
    07:00 +19°C° 0 mm 5 mps 750 mmHg 36%
    08:00 +20°C° 0 mm 5 mps 750 mmHg 31%
    09:00 +21°C° 0 mm 5 mps 750 mmHg 27%
    10:00 +22°C° 0 mm 5 mps 750 mmHg 22%
    11:00 +23°C° 0 mm 5 mps 749 mmHg 20%
    12:00 +25°C° 0 mm 5 mps 749 mmHg 18%
    13:00 +26°C° 0 mm 5 mps 749 mmHg 15%
    14:00 +27°C° 0 mm 6 mps 748 mmHg 15%
    15:00 +27°C° 0 mm 6 mps 748 mmHg 14%
    16:00 +28°C° 0 mm 6 mps 747 mmHg 14%
    17:00 +27°C° 0 mm 6 mps 747 mmHg 15%
    18:00 +26°C° 0 mm 6 mps 747 mmHg 16%
    19:00 +26°C° 0 mm 6 mps 747 mmHg 18%
    20:00 +24°C° 0 mm 6 mps 747 mmHg 20%
    21:00 +23°C° 0 mm 6 mps 747 mmHg 23%
    22:00 +23°C° 0 mm 6 mps 748 mmHg 26%
    23:00 +22°C° 0 mm 6 mps 748 mmHg 27%

    Tomorrow, 27 April, Friday

    Time Temperature Precipitation Wind Pressure Humidity
    00:00 +21°C° 0 mm 6 mps 747 mmHg 29%
    01:00 +21°C° 0 mm 6 mps 747 mmHg 30%
    02:00 +20°C° 0 mm 6 mps 747 mmHg 30%
    03:00 +20°C° 0 mm 5 mps 748 mmHg 30%
    04:00 +19°C° 0 mm 5 mps 748 mmHg 30%
    05:00 +19°C° 0 mm 6 mps 748 mmHg 28%
    06:00 +20°C° 0 mm 6 mps 748 mmHg 27%
    07:00 +20°C° 0 mm 6 mps 748 mmHg 25%
    08:00 +21°C° 0 mm 6 mps 748 mmHg 22%
    09:00 +23°C° 0 mm 6 mps 749 mmHg 19%
    10:00 +26°C° 0 mm 6 mps 749 mmHg 15%
    11:00 +27°C° 0 mm 6 mps 749 mmHg 14%
    12:00 +28°C° 0 mm 6 mps 748 mmHg 13%
    13:00 +29°C° 0 mm 6 mps 748 mmHg 11%
    14:00 +29°C° 0 mm 7 mps 748 mmHg 11%
    15:00 +30°C° 0 mm 7 mps 747 mmHg 11%
    16:00 +30°C° 0 mm 7 mps 747 mmHg 11%
    17:00 +29°C° 0 mm 7 mps 747 mmHg 12%
    18:00 +28°C° 0 mm 7 mps 747 mmHg 14%
    19:00 +28°C° 0 mm 7 mps 747 mmHg 15%
    20:00 +27°C° 0 mm 6 mps 747 mmHg 16%
    21:00 +26°C° 0 mm 6 mps 747 mmHg 18%
    22:00 +24°C° 0 mm 6 mps 747 mmHg 19%
    23:00 +23°C° 0 mm 6 mps 747 mmHg 20%

    Day after tomorrow, 28 April, Saturday

    Time Temperature Precipitation Wind Pressure Humidity
    00:00 +23°C° 0 mm 5 mps 747 mmHg 22%
    01:00 +22°C° 0 mm 5 mps 746 mmHg 23%
    02:00 +21°C° 0 mm 5 mps 746 mmHg 24%
    03:00 +21°C° 0 mm 5 mps 746 mmHg 25%
    04:00 +20°C° 0 mm 5 mps 745 mmHg 26%
    05:00 +21°C° 0 mm 5 mps 745 mmHg 26%
    06:00 +21°C° 0 mm 5 mps 746 mmHg 25%
    07:00 +22°C° 0 mm 5 mps 746 mmHg 25%
    08:00 +25°C° 0 mm 5 mps 746 mmHg 23%
    09:00 +26°C° 0 mm 5 mps 746 mmHg 21%
    10:00 +28°C° 0 mm 5 mps 746 mmHg 20%
    11:00 +29°C° 0 mm 4 mps 745 mmHg 17%
    12:00 +30°C° 0 mm 4 mps 745 mmHg 15%
    13:00 +33°C° 0 mm 4 mps 744 mmHg 12%
    14:00 +33°C° 0 mm 3 mps 744 mmHg 11%
    15:00 +34°C° 0 mm 3 mps 744 mmHg 10%
    16:00 +34°C° 0 mm 3 mps 743 mmHg 9%
    17:00 +34°C° 0 mm 2 mps 743 mmHg 10%
    18:00 +32°C° 0 mm 2 mps 743 mmHg 10%
    19:00 +31°C° 0 mm 2 mps 743 mmHg 10%
    20:00 +30°C° 0 mm 2 mps 743 mmHg 11%
    21:00 +29°C° 0 mm 1 mps 743 mmHg 12%
    22:00 +28°C° 0 mm 1 mps 743 mmHg 13%
    23:00 +28°C° 0 mm 1 mps 742 mmHg 15%

    29 April, Sunday

    Time Temperature Precipitation Wind Pressure Humidity
    00:00 +27°C° 0 mm 1 mps 742 mmHg 17%
    01:00 +26°C° 0 mm 1 mps 742 mmHg 19%
    02:00 +25°C° 0 mm 2 mps 742 mmHg 22%
    03:00 +25°C° 0 mm 2 mps 742 mmHg 25%
    04:00 +24°C° 0 mm 2 mps 742 mmHg 28%
    05:00 +25°C° 0 mm 2 mps 742 mmHg 29%
    06:00 +26°C° 0 mm 2 mps 743 mmHg 30%
    07:00 +27°C° 0 mm 2 mps 743 mmHg 30%
    08:00 +28°C° 0 mm 2 mps 743 mmHg 26%
    09:00 +30°C° 0 mm 2 mps 743 mmHg 22%
    10:00 +31°C° 0 mm 1 mps 743 mmHg 19%
    11:00 +32°C° 0 mm 1 mps 743 mmHg 16%
    12:00 +33°C° 0 mm 1 mps 742 mmHg 14%
    13:00 +32°C° 0 mm 0 mps 742 mmHg 12%
    14:00 +32°C° 0 mm 0 mps 741 mmHg 12%
    15:00 +34°C° 0 mm 1 mps 741 mmHg 11%
    16:00 +35°C° 0 mm 1 mps 740 mmHg 10%
    17:00 +34°C° 0 mm 1 mps 740 mmHg 11%
    18:00 +34°C° 0 mm 1 mps 740 mmHg 11%
    19:00 +34°C° 0 mm 1 mps 740 mmHg 12%
    20:00 +34°C° 0 mm 2 mps 740 mmHg 13%
    21:00 +32°C° 0 mm 2 mps 740 mmHg 14%
    22:00 +31°C° 0 mm 2 mps 740 mmHg 15%
    23:00 +31°C° 0 mm 2 mps 740 mmHg 15%

    30 April, Monday

    Time Temperature Precipitation Wind Pressure Humidity
    00:00 +30°C° 0 mm 3 mps 740 mmHg 15%
    01:00 +29°C° 0 mm 3 mps 740 mmHg 15%
    02:00 +29°C° 0 mm 3 mps 740 mmHg 15%
    03:00 +28°C° 0 mm 3 mps 740 mmHg 15%
    04:00 +28°C° 0 mm 3 mps 740 mmHg 15%
    05:00 +28°C° 0 mm 3 mps 740 mmHg 15%
    06:00 +28°C° 0 mm 3 mps 741 mmHg 16%
    07:00 +28°C° 0 mm 3 mps 741 mmHg 16%
    08:00 +29°C° 0 mm 3 mps 741 mmHg 15%
    09:00 +30°C° 0 mm 4 mps 742 mmHg 14%
    10:00 +32°C° 0 mm 5 mps 742 mmHg 13%
    11:00 +30°C° 0 mm 6 mps 742 mmHg 14%
    12:00 +30°C° 0 mm 7 mps 742 mmHg 15%
    13:00 +31°C° 0 mm 8 mps 742 mmHg 17%
    14:00 +31°C° 0 mm 8 mps 742 mmHg 17%
    15:00 +29°C° 0 mm 7 mps 742 mmHg 18%
    16:00 +29°C° 0 mm 7 mps 742 mmHg 18%
    17:00 +28°C° 0 mm 7 mps 743 mmHg 18%
    18:00 +28°C° 0 mm 6 mps 743 mmHg 18%
    19:00 +28°C° 0 mm 6 mps 743 mmHg 18%
    20:00 +27°C° 0 mm 5 mps 743 mmHg 20%
    21:00 +27°C° 0 mm 5 mps 743 mmHg 21%
    22:00 +26°C° 0 mm 5 mps 744 mmHg 23%
    23:00 +26°C° 0 mm 5 mps 744 mmHg 25%

    1 May, Tuesday

    Time Temperature Precipitation Wind Pressure Humidity
    00:00 +25°C° 0 mm 5 mps 743 mmHg 27%
    01:00 +25°C° 0 mm 5 mps 743 mmHg 29%
    02:00 +25°C° 0 mm 5 mps 743 mmHg 30%
    03:00 +23°C° 0 mm 5 mps 743 mmHg 31%
    04:00 +23°C° 0 mm 6 mps 743 mmHg 31%
    05:00 +23°C° 0 mm 6 mps 744 mmHg 30%
    06:00 +24°C° 0 mm 6 mps 744 mmHg 29%
    07:00 +24°C° 0 mm 6 mps 744 mmHg 27%
    08:00 +27°C° 0 mm 5 mps 745 mmHg 24%
    09:00 +28°C° 0 mm 5 mps 745 mmHg 21%
    10:00 +29°C° 0 mm 4 mps 745 mmHg 19%
    11:00 +30°C° 0 mm 4 mps 745 mmHg 17%
    12:00 +32°C° 0 mm 4 mps 745 mmHg 16%
    13:00 +33°C° 0 mm 4 mps 744 mmHg 15%
    14:00 +33°C° 0 mm 4 mps 744 mmHg 15%
    15:00 +33°C° 0 mm 5 mps 744 mmHg 15%
    16:00 +33°C° 0 mm 5 mps 744 mmHg 14%
    17:00 +33°C° 0 mm 5 mps 744 mmHg 15%
    18:00 +32°C° 0 mm 5 mps 744 mmHg 16%
    19:00 +32°C° 0 mm 5 mps 744 mmHg 17%
    20:00 +30°C° 0 mm 5 mps 745 mmHg 18%
    21:00 +29°C° 0 mm 5 mps 745 mmHg 19%
    22:00 +28°C° 0 mm 5 mps 745 mmHg 20%
    23:00 +27°C° 0 mm 5 mps 745 mmHg 21%
    Show more